Location: Wildcat Hills Observatory
(41.6350°N, 103.6812°W)
Time: 22:51:43
(UTC-06:00)

Daily predictions for brighter satellites

Satellite Brightness Start Highest point End
(mag) Time Altitude Azimuth Time Altitude Azimuth Time Altitude Azimuth
Spot 2 Rocket 4.0 20:43:40 10° S 20:48:44 67° WSW 20:53:50 10° NNW
ERS-1 Rocket 4.1 20:44:37 10° SE 20:48:52 28° ENE 20:53:09 10° N
Shenzhou-11 Module 2.0 20:49:57 10° WNW 20:53:03 82° S 20:56:07 10° ESE
Cosmos 2242 Rocket 4.0 20:50:38 10° NNW 20:55:07 67° W 20:59:30 10° S
NOSS 3-2 (A) 3.5 20:51:51 10° SSW 20:57:48 84° ESE 21:04:23 10° NE
Helios 1B rocket 2.6 20:58:31 10° NNE 21:02:34 52° E 21:06:34 10° S
Resurs 01 Rocket 3.4 21:04:33 10° SSW 21:08:31 32° W 21:12:32 10° NNW
SAR-Lupe-4 3.9 21:07:00 10° SSE 21:10:26 47° ENE 21:13:54 10° N
USA 215 3.6 21:04:26 10° ESE 21:10:53 63° NE 21:17:22 10° NW
ATLAS 5 CENTAUR R/B 3.8 21:07:04 10° NNW 21:11:58 27° NE 21:17:16 10° E
Lacrosse 4 Rocket 3.8 21:09:32 10° N 21:12:03 15° NE 21:14:33 10° E
Cosmos 1782 4.2 21:08:57 10° NNE 21:12:14 24° ENE 21:14:58 13° SE
Cosmos 1933 Rocket 4.2 21:09:32 10° SSW 21:13:49 60° W 21:18:08 10° N
YAOGAN 6 2.6 21:11:21 10° SSE 21:15:04 84° ENE 21:18:47 10° N
Envisat 3.7 21:10:38 10° S 21:15:35 55° W 21:20:36 10° NNW
Timation 2 Rocket 4.5 21:10:41 10° NNW 21:16:54 62° WSW 21:23:22 10° S
NOSS 3-2 (C) 3.5 21:11:13 10° SSW 21:17:12 86° SE 21:23:49 10° NE
Cosmos 1862 Rocket 4.3 21:12:48 10° NNW 21:17:13 57° W 21:21:36 10° S
Meteor 1-26 Rocket 4.3 21:11:59 10° N 21:17:39 85° W 21:23:22 10° S
Meteor 2-3 Rocket 3.7 21:12:10 10° S 21:17:52 78° E 21:23:33 10° NNE
Cosmos 1898 Rocket 4.3 21:12:54 10° SW 21:18:05 57° WNW 21:23:21 10° NNE
Milstar 3 4.4 21:10:32 10° SW 21:19:44 26° S 21:25:14 13° ESE
Cosmos 990 Rocket 4.1 21:18:51 10° SSW 21:24:02 80° WNW 21:29:18 10° NNE
GPS 2-04 Rocket1 3.4 21:23:16 10° WSW 21:26:30 30° S 21:28:27 18° SE
Helios 1A 3.4 21:23:49 10° S 21:27:57 61° WSW 21:32:07 10° NNW
Cosmos 1125 Rocket 4.2 21:23:40 10° SSE 21:28:22 34° E 21:33:04 10° NE
Cosmos 2279 Rocket 4.5 21:22:49 10° N 21:28:47 44° ENE 21:33:42 15° SE
Aureole 3 3.3 21:26:41 15° SSE 21:28:57 36° E 21:31:44 10° NNE
ARGOS 3.6 21:25:05 14° SE 21:29:29 46° ENE 21:34:35 10° N
Cosmos 2082 Rocket 4.2 21:26:50 10° NW 21:31:17 24° WSW 21:35:44 10° SSW
SAR-Lupe-1 4.0 21:28:43 13° SSE 21:31:47 77° ENE 21:35:22 10° N
Cosmos 2142 Rocket 4.5 21:25:54 10° N 21:32:01 70° E 21:37:59 11° SSE
ISS -3.7 21:29:37 10° SW 21:32:46 47° SE 21:35:55 10° ENE
Aureole 1 4.1 21:30:19 10° S 21:33:17 69° ESE 21:36:37 10° NNE
CENTAUR R/B 2.8 21:33:09 10° S 21:38:43 44° ESE 21:44:59 10° NE
Cosmos 1825 2.7 21:37:59 19° SSE 21:40:18 39° E 21:43:51 10° NNE
Cosmos 1408 2.9 21:40:27 19° SSE 21:42:51 45° E 21:46:26 10° NNE
SL-08 RB Rocket 4.2 21:41:06 19° SE 21:44:06 47° ENE 21:48:35 10° N
COSMOS 2455 2.8 21:39:57 10° SSW 21:45:57 85° ESE 21:52:01 10° NNE
Terra 3.5 21:45:22 15° E 21:47:35 20° ENE 21:51:01 10° NNE
H-2A R/B 2.7 21:44:20 19° SE 21:47:51 44° ENE 21:52:54 10° N
Okean 1-7 3.0 21:45:09 10° N 21:49:35 81° E 21:52:44 19° SSE
Tiangong 2 1.5 21:48:01 10° W 21:51:09 49° SSW 21:52:13 33° SSE
SPOT 5 3.2 21:49:16 20° SSE 21:53:00 64° ENE 21:58:17 10° N
Meteor 1-29 4.4 21:50:03 10° N 21:53:22 40° WNW 21:56:39 10° SW
Cosmos 1703 Rocket 4.0 21:49:39 10° NNW 21:54:01 60° W 21:57:56 12° S
DNEPR-1 R/B 3.8 21:56:30 10° SSW 22:01:45 59° ESE 22:06:15 10° NE
Cosmos 2344 3.8 21:55:16 10° S 22:02:34 49° ESE 22:10:26 10° NE
Cosmos 1733 Rocket 3.6 22:06:59 31° SE 22:08:11 39° E 22:12:13 10° NNE
MetOp-A 4.4 22:04:04 16° S 22:08:20 65° WSW 22:13:40 10° NNW
Lacrosse 5 rocket 0.9 22:06:07 10° SW 22:09:41 87° NW 22:13:22 10° NE
Cosmos 2263 4.2 22:04:33 10° SSW 22:10:20 87° ESE 22:16:07 10° NNE
Cosmos 1943 Rocket 2.1 22:07:12 10° SSW 22:12:46 73° ESE 22:18:19 10° NNE
deb Kosmos-1763 4.1 22:09:01 10° NNW 22:12:46 67° ENE 22:13:51 42° SE
Cosmos 1869 Rocket 4.5 22:09:02 10° SSW 22:13:12 47° WNW 22:17:26 10° N
Cosmos 158 Rocket 3.7 22:10:45 10° NNW 22:15:40 84° ENE 22:17:54 33° SSE
Cosmos 1340 2.5 22:13:04 10° N 22:16:54 83° E 22:18:04 42° SSE
Nimbus 7 Rocket 4.3 22:17:57 10° NNE 22:23:53 76° ESE 22:28:04 20° S
Cosmos 1606 3.4 22:20:41 10° NNW 22:24:20 48° W 22:26:04 27° SSW
Cosmos 2369 Rocket 3.1 22:21:38 10° SW 22:27:06 50° WNW 22:32:39 10° NNE
ERS-1 Rocket 4.3 22:23:21 12° SSW 22:27:31 34° W 22:32:06 10° NNW
Cosmos 1833 4.3 22:22:27 10° NNW 22:28:15 70° ENE 22:30:40 35° SE
Shenzhou-11 Module 4.0 22:26:46 10° W 22:28:25 19° SW 22:28:25 19° SW
Cosmos 1048 Rocket 4.1 22:24:42 10° NNW 22:30:02 75° WSW 22:32:24 33° S
DMSP B5D2-2 4.0 22:25:58 10° NNE 22:31:10 67° ESE 22:33:27 33° S
Intercosmos 25 Rocket 4.4 22:24:11 10° N 22:32:08 70° E 22:34:10 38° SSE
Meteor 1-27 Rocket 3.7 22:29:04 10° N 22:34:53 85° W 22:37:36 33° S
Cosmos 2084 4.3 22:32:40 10° NW 22:36:10 33° WSW 22:37:00 30° SW
CARTOSAT-1 3.6 22:39:25 51° SE 22:40:14 63° ENE 22:44:32 10° N
Cosmos 1674 Rocket 3.4 22:40:20 10° N 22:44:41 73° E 22:45:20 60° SE
GEOS 3 Rocket 3.5 22:43:40 44° SE 22:45:25 87° NE 22:50:41 10° NW
SPOT 1/Viking Rocket 4.0 22:43:29 30° SSW 22:45:54 57° W 22:51:02 10° NNW
Cosmos 2251 Rocket 4.2 22:41:15 10° N 22:46:13 42° ENE 22:47:31 35° E
Cosmos 1378 Rocket 4.1 22:42:36 10° N 22:46:49 41° ENE 22:47:08 41° E
Cosmos 1092 Rocket 3.9 22:47:18 38° SSE 22:49:43 69° E 22:55:50 10° NNE
Lacrosse 4 Rocket 1.5 22:46:51 10° NNW 22:51:21 77° WSW 22:52:03 61° S
Nadezhda 4 Rocket 4.0 22:48:55 27° SSW 22:52:34 80° W 22:58:46 10° N
USA 215 4.0 22:51:26 28° S 22:54:03 40° SW 23:00:10 10° WNW
ATLAS 5 CENTAUR R/B 2.5 22:51:10 10° NW 22:57:12 72° WSW 22:59:24 43° SSE
H-2A R/B 2.0 22:57:24 58° E 22:57:30 59° ENE 23:01:34 10° N
ATLAS CENTAUR R/B 3.6 23:05:54 13° ENE 23:05:54 13° ENE 23:06:30 10° NE
SL-19 R/B 4.4 23:02:25 10° NNE 23:08:26 78° ESE 23:10:35 44° S
H-2A ROCKET BODY 4.3 23:04:03 10° SW 23:33:25 - ESE 23:05:18 16° SSW
ISS -1.6 23:06:33 10° W 23:09:22 27° NNW 23:12:12 10° NE
Meteor 1-14 Rocket 4.3 23:13:53 55° SSE 23:15:06 70° E 23:20:55 10° NNE
Cosmos 1656 Rocket 3.6 23:13:09 36° SW 23:15:25 78° WNW 23:20:58 10° NNE
ARGOS Delta rocket 3.9 23:13:16 10° NNE 23:17:17 54° ENE 23:17:17 54° ENE
Cosmos 1437 4.2 23:15:10 10° NNW 23:17:20 37° NW 23:17:20 37° NW
Cosmos 1908 Rocket 3.5 23:18:36 76° SW 23:18:50 80° W 23:23:18 10° N
Okean 2 Rocket 4.0 23:22:31 37° ENE 23:22:31 37° ENE 23:25:51 10° NNE
Cosmos 1867 3.4 23:18:16 10° NNW 23:23:45 82° ENE 23:24:30 67° SE
Okean 3 3.6 23:19:49 10° NNW 23:23:49 65° W 23:23:49 65° W
Terra 2.4 23:24:15 42° SW 23:24:59 45° W 23:29:35 10° NNW
CZ-2C R/B 4.0 23:25:43 33° E 23:26:11 34° ENE 23:30:38 10° N
H-2A R/B 3.9 23:24:58 18° SW 23:27:23 24° W 23:31:43 10° NW
IGS 5A 4.4 23:27:39 38° WSW 23:27:46 38° W 23:31:40 10° NNW
CENTAUR R/B 3.9 23:23:41 10° WSW 23:29:26 39° NW 23:35:57 10° NNE
CZ-4C R/B 3.7 23:32:15 65° NE 23:32:15 65° NE 23:36:03 10° N
Cosmos 2227 Rocket 3.3 23:29:43 10° N 23:34:46 32° ENE 23:36:06 29° E
Cosmos 1812 3.4 23:31:01 10° N 23:34:04 54° N 23:34:04 54° N
deb Chang Zheng 4 3.8 23:30:41 10° N 23:35:06 68° WNW 23:35:13 67° W
Cosmos 2219 3.1 23:32:17 10° NNW 23:38:04 88° WSW 23:38:45 71° SSE
Okean 1 4.3 23:36:38 10° N 23:39:36 42° NNE 23:39:36 42° NNE
CZ-2C R/B 3.3 23:37:47 10° NNE 23:42:04 40° E 23:42:04 40° E
Sich 1 Rocket 4.3 23:43:28 45° W 23:43:46 46° WNW 23:48:03 10° N
Cosmos 1782 Rocket 3.8 23:46:17 66° NW 23:46:17 66° NW 23:50:19 10° N
Cosmos 1655 Rocket 3.9 23:45:17 63° S 23:46:22 87° E 23:52:38 10° N
Lacrosse 5 rocket 4.1 23:47:07 10° WNW 23:49:24 16° NNW 23:51:45 10° NNE
Meteor 1-18 Rocket 4.2 23:45:17 10° NNW 23:51:00 78° W 23:51:37 69° SSW
Spot 4 4.4 23:53:28 48° W 23:53:28 48° W 23:58:09 10° NNW
Cosmos 405 Rocket 4.0 23:50:37 10° NNW 23:53:04 37° NNW 23:53:04 37° NNW
